Regional Weather Roundup
Issued by NWS

Home | Current Version | Previous Version | Text Only | Print | Product List | Glossary On
Versions: 1 2 3 4 5 6 7 8 9 10 11 12 13 14 15 16 17 18 19 20 21 22 23 24 25 26 27 28 29 30 31 32 33 34 35 36 37 38 39 40 41 42 43 44 45 46 47 48 49 50
000
ASUS43 KTOP 011608
RWRKS

WEATHER ROUNDUP FOR KANSAS
NATIONAL WEATHER SERVICE GOODLAND KS
1100 AM CDT TUE SEP 01 2015

NOTE:  "FAIR" INDICATES FEW OR NO CLOUDS BELOW 12,000 FEET WITH NO
SIGNIFICANT WEATHER AND/OR OBSTRUCTIONS TO VISIBILITY.

KSZ001>006-013>018-027>032-041>047-011700-
NORTHWEST KANSAS

CITY           SKY/WX    TMP DP  RH WIND       PRES   REMARKS
GOODLAND       SUNNY     77  57  50 S7        30.03S
HAYS           MOSUNNY   84  61  45 SW21G26   29.96R
HILL CITY      MOSUNNY   80  61  52 S10       29.96S
RUSSELL        SUNNY     86  60  41 S23G29    29.95S
$$

KSZ061>065-074>080-084>089-011700-
SOUTHWEST KANSAS

CITY           SKY/WX    TMP DP  RH WIND       PRES   REMARKS
DODGE CITY     SUNNY     81  58  45 S21       30.00S
ELKHART          N/A     79  58  48 S6          N/A
GARDEN CITY    MOSUNNY   76  58  53 NW5       30.01R
GREAT BEND     SUNNY     86  61  42 S21G26    29.97R
LIBERAL        MOSUNNY   79  55  44 S10       30.03S
PRATT          SUNNY     84  59  42 MISG      30.01S
$$

KSZ066>073-081>083-090>101-011700-
SOUTHEAST KANSAS

CITY           SKY/WX    TMP DP  RH WIND       PRES   REMARKS
CHANUTE        SUNNY     82  68  62 S12       30.06R
COFFEYVILLE    SUNNY     82  70  66 S13       30.06R
HUTCHINSON     MOSUNNY   84  64  50 S14       30.00S
MEDICINE LODGE   N/A     86  64  47 S10       29.99S
NEWTON         SUNNY     84  64  51 S20       30.04S
PARSONS        SUNNY     82  71  69 S9        30.07R
WICHITA INTL   MOSUNNY   84  65  52 S15       30.01S
WICHITA JABRA  SUNNY     82  67  60 S14       30.01S
WICHITA MCCONL SUNNY     83  65  54 SE16      30.02S
WINFIELD       SUNNY     86  67  52 S14       30.03F
$$

KSZ007>012-019>026-033>040-048>060-102>105-011700-
NORTHEAST KANSAS

CITY           SKY/WX    TMP DP  RH WIND       PRES   REMARKS
CONCORDIA      MOSUNNY   81  65  58 S12G23    29.97R
EMPORIA        SUNNY     83  65  54 S14       30.03R
LAWRENCE       SUNNY     83  68  60 SW9       30.03S
MANHATTAN      SUNNY     86  67  52 S16G25    29.98S
MARYSVILLE     MOSUNNY  N/A N/A N/A SW13      29.98S
OLATHE IND     SUNNY     82  69  64 S14       30.05S
OLATHE EXE     SUNNY     80  68  66 S12       30.05R
SALINA         MOSUNNY   88  65  46 S18G26    29.97S
TOPEKA BILLARD SUNNY     83  67  58 S9        30.02R
TOPEKA FORBES  SUNNY     83  68  60 SW13      30.02S
$$


USA.gov is the U.S. government's official web portal to all federal, state and local government web resources and services.